This demonstration page uses our WeatherBlox Daily Observations layout. Learn more.

Hourly Observations for July 22, 2017

Temp ( °F °C ) Dew Point ( °F °C ) Humidity (%) Winds ( mph kmh ) Pressure ( in mb ) Visibility ( mi km ) Precip ( " mm )
12:15 am 00:15 Clear 81 27 73 23 79 79 N 5 7 29.94 1014 10 16.09344 0 0
12:35 am 00:35 Clear 81 27 73 23 79 79 NNW 5 7 29.94 1014 10 16.09344 0 0
12:55 am 00:55 Clear 79 26 73 23 84 84 Calm 29.94 1014 10 16.09344 0 0
1:15 am 01:15 Clear 79 26 73 23 84 84 NNW 3 6 29.94 1014 10 16.09344 0 0
1:35 am 01:35 Clear 81 27 73 23 79 79 N 5 7 29.91 1013 10 16.09344 0 0
1:55 am 01:55 Mostly Cloudy 79 26 73 23 84 84 NNW 7 11 29.94 1014 10 16.09344 0 0
2:15 am 02:15 Mostly Cloudy 81 27 73 23 79 79 NNW 7 11 29.94 1014 10 16.09344 0 0
2:35 am 02:35 Partly Cloudy 79 26 73 23 84 84 NNW 6 9 29.94 1014 10 16.09344 0 0
2:55 am 02:55 Clear 79 26 73 23 84 84 NNW 7 11 29.91 1013 10 16.09344 0 0
3:15 am 03:15 Clear 79 26 73 23 84 84 N 8 13 29.91 1013 10 16.09344 0 0
3:35 am 03:35 Partly Cloudy 79 26 72 22 79 79 NNW 9 15 29.91 1013 10 16.09344 0 0
3:55 am 03:55 Clear 79 26 72 22 79 79 NNW 7 11 29.91 1013 10 16.09344 0 0
4:15 am 04:15 Clear 79 26 72 22 79 79 Calm 29.91 1013 10 16.09344 0 0
4:35 am 04:35 Clear 77 25 73 23 89 89 Calm 29.91 1013 10 16.09344 0 0
4:55 am 04:55 Clear 77 25 73 23 89 89 NNW 3 6 29.91 1013 10 16.09344 0 0
5:15 am 05:15 Clear 77 25 73 23 89 89 Calm 29.91 1013 10 16.09344 0 0
5:35 am 05:35 Clear 75 24 73 23 94 94 NNW 6 9 29.91 1013 10 16.09344 0 0
5:55 am 05:55 Clear 75 24 73 23 94 94 N 3 6 29.91 1013 10 16.09344 0 0
6:15 am 06:15 Sunny 77 25 72 22 83 83 Calm 29.91 1013 10 16.09344 0 0
6:35 am 06:35 Sunny 77 25 72 22 83 83 Calm 29.91 1013 10 16.09344 0 0
6:55 am 06:55 Sunny 77 25 73 23 89 89 NNW 6 9 29.94 1014 10 16.09344 0 0
7:15 am 07:15 Sunny 77 25 73 23 89 89 N 3 6 29.94 1014 10 16.09344 0 0
7:35 am 07:35 Sunny 79 26 73 23 84 84 NNW 3 6 29.94 1014 10 16.09344 0 0
7:55 am 07:55 Sunny 79 26 73 23 84 84 NNW 5 7 29.94 1014 10 16.09344 0 0
8:15 am 08:15 Sunny 79 26 73 23 84 84 NNW 7 11 29.94 1014 10 16.09344 0 0
8:35 am 08:35 Sunny 81 27 73 23 79 79 NNW 7 11 29.94 1014 10 16.09344 0 0
8:55 am 08:55 Sunny 82 28 75 24 79 79 NW 7 11 29.94 1014 10 16.09344 0 0
9:15 am 09:15 Sunny 82 28 75 24 79 79 NW 6 9 29.94 1014 10 16.09344 0 0
9:35 am 09:35 Sunny 82 28 75 24 79 79 NW 6 9 29.94 1014 10 16.09344 0 0
9:55 am 09:55 Partly Cloudy 82 28 75 24 79 79 NNW 7 11 29.94 1014 10 16.09344 0 0
10:15 am 10:15 Mostly Cloudy 84 29 75 24 74 74 NW 7 11 29.94 1014 10 16.09344 0 0
10:35 am 10:35 Partly Cloudy 86 30 75 24 70 70 N 3 6 29.91 1013 10 16.09344 0 0
10:55 am 10:55 Sunny 86 30 75 24 70 70 NW 3 6 29.91 1013 10 16.09344 0 0
11:15 am 11:15 Sunny 88 31 75 24 66 66 Calm 29.91 1013 10 16.09344 0 0
11:35 am 11:35 Partly Cloudy 88 31 75 24 66 66 W 6 9 29.91 1013 10 16.09344 0 0
11:55 am 11:55 Partly Cloudy 90 32 75 24 63 63 Calm 29.88 1012 10 16.09344 0 0
12:15 pm 12:15 Partly Cloudy 90 32 75 24 63 63 WSW 6 9 29.88 1012 10 16.09344 0 0
12:35 pm 12:35 Sunny 90 32 73 23 59 59 SW 5 7 29.88 1012 10 16.09344 0 0
12:55 pm 12:55 Sunny 90 32 75 24 63 63 WSW 7 11 29.88 1012 10 16.09344 0 0
1:15 pm 13:15 Sunny 90 32 77 25 67 67 W 5 7 29.88 1012 10 16.09344 0 0
1:35 pm 13:35 Sunny with Nearby Thunderstorms 91 33 77 25 63 63 WSW 8 13 29.85 1011 10 16.09344 0 0
1:55 pm 13:55 Mostly Cloudy with Nearby Thunderstorms 81 27 72 22 74 74 NNW 28 44 29.94 1014 10 16.09344 0 0
2:15 pm 14:15 Cloudy 72 22 72 22 100 100 WNW 7 11 29.91 1013 1 1.609344 0.41 10.414
2:35 pm 14:35 Mostly Cloudy 73 23 73 23 100 100 W 5 7 29.91 1013 10 16.09344 0.45 11.43
2:55 pm 14:55 Sunny 73 23 73 23 100 100 Calm 29.88 1012 10 16.09344 0.45 11.43
3:15 pm 15:15 Partly Cloudy with Nearby Thunderstorms 73 23 73 23 100 100 SSW 3 6 29.88 1012 10 16.09344 0 0
3:35 pm 15:35 Partly Cloudy 77 25 73 23 89 89 W 5 7 29.88 1012 10 16.09344 0 0
3:55 pm 15:55 Partly Cloudy 77 25 75 24 94 94 Calm 29.85 1011 10 16.09344 0 0
4:15 pm 16:15 Partly Cloudy 79 26 75 24 89 89 Calm 29.85 1011 10 16.09344 0 0
4:35 pm 16:35 Mostly Cloudy 79 26 73 23 84 84 NNW 3 6 29.85 1011 10 16.09344 0 0
4:55 pm 16:55 Cloudy 79 26 73 23 84 84 NNW 8 13 29.85 1011 10 16.09344 0 0
5:15 pm 17:15 Cloudy with Heavy Rain 77 25 73 23 89 89 W 10 17 29.88 1012 2 3.218688 0.15 3.81
5:35 pm 17:35 Mostly Cloudy 73 23 72 22 94 94 W 8 13 29.88 1012 10 16.09344 0.18 4.572
5:55 pm 17:55 Partly Cloudy with Thunderstorms 73 23 73 23 100 100 SW 7 11 29.85 1011 10 16.09344 0.2 5.08
6:15 pm 18:15 Sunny 73 23 73 23 100 100 S 5 7 29.83 1010 10 16.09344 0.01 0.254
6:35 pm 18:35 Partly Cloudy with Light Rain 73 23 73 23 100 100 S 3 6 29.8 1009 10 16.09344 0.03 0.762
6:55 pm 18:55 Partly Cloudy 73 23 73 23 100 100 undefined N/A 29.8 1009 10 16.09344 0.03 0.762
7:15 pm 19:15 Sunny 72 22 72 22 100 100 Calm 29.8 1009 10 16.09344 0 0
7:35 pm 19:35 Sunny 73 23 73 23 100 100 Calm 29.8 1009 10 16.09344 0 0
7:55 pm 19:55 Sunny 73 23 73 23 100 100 Calm 29.8 1009 10 16.09344 0 0
8:15 pm 20:15 Sunny 73 23 73 23 100 100 Calm 29.8 1009 10 16.09344 0.01 0.254
8:35 pm 20:35 Partly Cloudy with Light Rain 73 23 73 23 100 100 SW 7 11 29.83 1010 10 16.09344 0.01 0.254
8:55 pm 20:55 Partly Cloudy 73 23 73 23 100 100 W 6 9 29.83 1010 10 16.09344 0.01 0.254
9:15 pm 21:15 Mostly Cloudy 73 23 73 23 100 100 N 5 7 29.83 1010 10 16.09344 0 0
9:35 pm 21:35 Mostly Cloudy 73 23 73 23 100 100 Calm 29.83 1010 10 16.09344 0 0
9:55 pm 21:55 Cloudy 73 23 73 23 100 100 Calm 29.83 1010 10 16.09344 0 0
10:15 pm 22:15 Partly Cloudy 73 23 73 23 100 100 Calm 29.83 1010 10 16.09344 0 0
10:35 pm 22:35 Clear 73 23 73 23 100 100 Calm 29.83 1010 10 16.09344 0 0
10:55 pm 22:55 Mostly Cloudy with Light Rain 73 23 73 23 100 100 S 7 11 29.8 1009 10 16.09344 0 0
11:15 pm 23:15 Partly Cloudy with Light Rain 73 23 73 23 100 100 SSW 5 7 29.8 1009 10 16.09344 0 0
11:35 pm 23:35 Mostly Cloudy with Light Rain 73 23 73 23 100 100 SW 3 6 29.83 1010 10 16.09344 0 0
11:55 pm 23:55 Mostly Cloudy with Rain 73 23 73 23 100 100 Calm 29.8 1009 10 16.09344 0 0

Powered by AerisWeather